owner,sensor,date,latitude,longitude,vertical_datum,sea_water_practical_salinity,qcFlag 
TABS,ioos:station:wmo:42051:1,2014-09-01T00:00:00Z,29.6350,-93.6417,2.0,29.3919,11111222 
TABS,ioos:station:wmo:42051:1,2014-09-01T00:30:00Z,29.6350,-93.6417,2.0,29.4416,11111222 
TABS,ioos:station:wmo:42051:1,2014-09-01T01:00:00Z,29.6350,-93.6417,2.0,29.4177,11111222 
TABS,ioos:station:wmo:42051:1,2014-09-01T01:30:00Z,29.6350,-93.6417,2.0,28.7101,11111222 
TABS,ioos:station:wmo:42051:1,2014-09-01T02:00:00Z,29.6350,-93.6417,2.0,28.7843,11111222 
TABS,ioos:station:wmo:42051:1,2014-09-01T02:30:00Z,29.6350,-93.6417,2.0,28.6922,11111222 
TABS,ioos:station:wmo:42051:1,2014-09-01T03:00:00Z,29.6350,-93.6417,2.0,28.6716,11111222 
TABS,ioos:station:wmo:42051:1,2014-09-01T03:30:00Z,29.6350,-93.6417,2.0,28.6107,11111222 
TABS,ioos:station:wmo:42051:1,2014-09-01T04:00:00Z,29.6350,-93.6417,2.0,28.1943,11111222 
TABS,ioos:station:wmo:42051:1,2014-09-01T04:30:00Z,29.6350,-93.6417,2.0,28.1492,11111222 
TABS,ioos:station:wmo:42051:1,2014-09-01T05:00:00Z,29.6350,-93.6417,2.0,28.0227,11111222 
TABS,ioos:station:wmo:42051:1,2014-09-01T05:30:00Z,29.6350,-93.6417,2.0,27.8179,11111222 
TABS,ioos:station:wmo:42051:1,2014-09-01T06:00:00Z,29.6350,-93.6417,2.0,27.6803,11111222 
TABS,ioos:station:wmo:42051:1,2014-09-01T06:30:00Z,29.6350,-93.6417,2.0,27.6239,11111222 
TABS,ioos:station:wmo:42051:1,2014-09-01T07:00:00Z,29.6350,-93.6417,2.0,27.2433,11111222 
TABS,ioos:station:wmo:42051:1,2014-09-01T07:30:00Z,29.6350,-93.6417,2.0,27.0399,11111222 
TABS,ioos:station:wmo:42051:1,2014-09-01T08:00:00Z,29.6350,-93.6417,2.0,26.6992,11111222 
TABS,ioos:station:wmo:42051:1,2014-09-01T08:30:00Z,29.6350,-93.6417,2.0,26.3986,11111222 
TABS,ioos:station:wmo:42051:1,2014-09-01T09:00:00Z,29.6350,-93.6417,2.0,26.2822,11111222 
TABS,ioos:station:wmo:42051:1,2014-09-01T09:30:00Z,29.6350,-93.6417,2.0,25.9108,11111222 
TABS,ioos:station:wmo:42051:1,2014-09-01T10:00:00Z,29.6350,-93.6417,2.0,25.8857,11111222 
TABS,ioos:station:wmo:42051:1,2014-09-01T10:30:00Z,29.6350,-93.6417,2.0,25.5691,11111222 
TABS,ioos:station:wmo:42051:1,2014-09-01T11:00:00Z,29.6350,-93.6417,2.0,25.2709,11111222 
TABS,ioos:station:wmo:42051:1,2014-09-01T11:30:00Z,29.6350,-93.6417,2.0,25.1504,11111222 
TABS,ioos:station:wmo:42051:1,2014-09-01T12:00:00Z,29.6350,-93.6417,2.0,24.8555,11111222 
TABS,ioos:station:wmo:42051:1,2014-09-01T12:30:00Z,29.6350,-93.6417,2.0,24.862,11111222 
TABS,ioos:station:wmo:42051:1,2014-09-01T13:00:00Z,29.6350,-93.6417,2.0,24.6423,11111222 
TABS,ioos:station:wmo:42051:1,2014-09-01T13:30:00Z,29.6350,-93.6417,2.0,24.424,11111222 
TABS,ioos:station:wmo:42051:1,2014-09-01T14:00:00Z,29.6350,-93.6417,2.0,24.5436,11111222 
TABS,ioos:station:wmo:42051:1,2014-09-01T14:30:00Z,29.6350,-93.6417,2.0,24.481,11111222 
TABS,ioos:station:wmo:42051:1,2014-09-01T15:00:00Z,29.6350,-93.6417,2.0,24.2636,11111222 
TABS,ioos:station:wmo:42051:1,2014-09-01T15:30:00Z,29.6350,-93.6417,2.0,24.2313,11111222 
TABS,ioos:station:wmo:42051:1,2014-09-01T16:00:00Z,29.6350,-93.6417,2.0,24.1053,11111222 
TABS,ioos:station:wmo:42051:1,2014-09-01T16:30:00Z,29.6350,-93.6417,2.0,24.0818,11111222 
TABS,ioos:station:wmo:42051:1,2014-09-01T17:00:00Z,29.6350,-93.6417,2.0,24.087,11111222 
TABS,ioos:station:wmo:42051:1,2014-09-01T17:30:00Z,29.6350,-93.6417,2.0,24.5088,11111222 
TABS,ioos:station:wmo:42051:1,2014-09-01T18:00:00Z,29.6350,-93.6417,2.0,24.1183,11111222 
TABS,ioos:station:wmo:42051:1,2014-09-01T18:30:00Z,29.6350,-93.6417,2.0,24.1741,11111222 
TABS,ioos:station:wmo:42051:1,2014-09-01T19:00:00Z,29.6350,-93.6417,2.0,24.0898,11111222 
TABS,ioos:station:wmo:42051:1,2014-09-01T19:30:00Z,29.6350,-93.6417,2.0,23.903,11111222 
TABS,ioos:station:wmo:42051:1,2014-09-01T20:00:00Z,29.6350,-93.6417,2.0,23.7504,11111222 
TABS,ioos:station:wmo:42051:1,2014-09-01T20:30:00Z,29.6350,-93.6417,2.0,23.69,11111222 
TABS,ioos:station:wmo:42051:1,2014-09-01T21:00:00Z,29.6350,-93.6417,2.0,23.6717,11111222 
TABS,ioos:station:wmo:42051:1,2014-09-01T21:30:00Z,29.6350,-93.6417,2.0,23.6828,11111222 
TABS,ioos:station:wmo:42051:1,2014-09-01T22:00:00Z,29.6350,-93.6417,2.0,23.5218,11111222 
TABS,ioos:station:wmo:42051:1,2014-09-01T22:30:00Z,29.6350,-93.6417,2.0,23.5102,11111222 
TABS,ioos:station:wmo:42051:1,2014-09-01T23:00:00Z,29.6350,-93.6417,2.0,23.4938,11111222 
TABS,ioos:station:wmo:42051:1,2014-09-01T23:30:00Z,29.6350,-93.6417,2.0,23.6594,11111222 
TABS,ioos:station:wmo:42051:1,2014-09-02T00:00:00Z,29.6350,-93.6417,2.0,23.5025,11111222 
TABS,ioos:station:wmo:42051:1,2014-09-02T00:30:00Z,29.6350,-93.6417,2.0,23.5446,11111222 
TABS,ioos:station:wmo:42051:1,2014-09-02T01:00:00Z,29.6350,-93.6417,2.0,23.3781,11111222 
TABS,ioos:station:wmo:42051:1,2014-09-02T01:30:00Z,29.6350,-93.6417,2.0,23.4238,11111222 
TABS,ioos:station:wmo:42051:1,2014-09-02T02:00:00Z,29.6350,-93.6417,2.0,23.2317,11111222 
TABS,ioos:station:wmo:42051:1,2014-09-02T02:30:00Z,29.6350,-93.6417,2.0,23.2299,11111222 
TABS,ioos:station:wmo:42051:1,2014-09-02T03:00:00Z,29.6350,-93.6417,2.0,23.4582,11111222 
TABS,ioos:station:wmo:42051:1,2014-09-02T03:30:00Z,29.6350,-93.6417,2.0,23.7526,11111222 
TABS,ioos:station:wmo:42051:1,2014-09-02T04:00:00Z,29.6350,-93.6417,2.0,24.0261,11111222 
TABS,ioos:station:wmo:42051:1,2014-09-02T04:30:00Z,29.6350,-93.6417,2.0,24.0629,11111222 
TABS,ioos:station:wmo:42051:1,2014-09-02T05:00:00Z,29.6350,-93.6417,2.0,24.0893,11111222 
TABS,ioos:station:wmo:42051:1,2014-09-02T05:30:00Z,29.6350,-93.6417,2.0,24.0142,11111222 
TABS,ioos:station:wmo:42051:1,2014-09-02T06:00:00Z,29.6350,-93.6417,2.0,24.0301,11111222 
TABS,ioos:station:wmo:42051:1,2014-09-02T06:30:00Z,29.6350,-93.6417,2.0,24.0438,11111222 
TABS,ioos:station:wmo:42051:1,2014-09-02T07:00:00Z,29.6350,-93.6417,2.0,24.0668,11111222 
TABS,ioos:station:wmo:42051:1,2014-09-02T07:30:00Z,29.6350,-93.6417,2.0,24.2133,11111222 
TABS,ioos:station:wmo:42051:1,2014-09-02T08:00:00Z,29.6350,-93.6417,2.0,24.341,11111222 
TABS,ioos:station:wmo:42051:1,2014-09-02T08:30:00Z,29.6350,-93.6417,2.0,24.3219,11111222 
TABS,ioos:station:wmo:42051:1,2014-09-02T09:00:00Z,29.6350,-93.6417,2.0,24.2545,11111222 
TABS,ioos:station:wmo:42051:1,2014-09-02T09:30:00Z,29.6350,-93.6417,2.0,24.2763,11111222 
TABS,ioos:station:wmo:42051:1,2014-09-02T10:00:00Z,29.6350,-93.6417,2.0,24.3146,11111222 
TABS,ioos:station:wmo:42051:1,2014-09-02T10:30:00Z,29.6350,-93.6417,2.0,24.4633,11111222 
TABS,ioos:station:wmo:42051:1,2014-09-02T11:00:00Z,29.6350,-93.6417,2.0,24.5863,11111222 
TABS,ioos:station:wmo:42051:1,2014-09-02T11:30:00Z,29.6350,-93.6417,2.0,24.0714,11111222 
TABS,ioos:station:wmo:42051:1,2014-09-02T12:00:00Z,29.6350,-93.6417,2.0,24.0702,11111222 
TABS,ioos:station:wmo:42051:1,2014-09-02T12:30:00Z,29.6350,-93.6417,2.0,24.0518,11111222 
TABS,ioos:station:wmo:42051:1,2014-09-02T13:00:00Z,29.6350,-93.6417,2.0,24.0837,11111222 
TABS,ioos:station:wmo:42051:1,2014-09-02T13:30:00Z,29.6350,-93.6417,2.0,23.2361,11111222 
TABS,ioos:station:wmo:42051:1,2014-09-02T14:00:00Z,29.6350,-93.6417,2.0,22.6581,11111222 
TABS,ioos:station:wmo:42051:1,2014-09-02T14:30:00Z,29.6350,-93.6417,2.0,22.6398,11111222 
TABS,ioos:station:wmo:42051:1,2014-09-02T15:00:00Z,29.6350,-93.6417,2.0,22.739,11111222 
TABS,ioos:station:wmo:42051:1,2014-09-02T15:30:00Z,29.6350,-93.6417,2.0,23.1812,11111222 
TABS,ioos:station:wmo:42051:1,2014-09-02T16:00:00Z,29.6350,-93.6417,2.0,22.9775,11111222 
TABS,ioos:station:wmo:42051:1,2014-09-02T16:30:00Z,29.6350,-93.6417,2.0,22.9593,11111222 
TABS,ioos:station:wmo:42051:1,2014-09-02T17:00:00Z,29.6350,-93.6417,2.0,22.7705,11111222 
TABS,ioos:station:wmo:42051:1,2014-09-02T17:30:00Z,29.6350,-93.6417,2.0,23.1246,11111222 
TABS,ioos:station:wmo:42051:1,2014-09-02T18:00:00Z,29.6350,-93.6417,2.0,23.2051,11111222 
TABS,ioos:station:wmo:42051:1,2014-09-02T18:30:00Z,29.6350,-93.6417,2.0,23.1609,11111222 
TABS,ioos:station:wmo:42051:1,2014-09-02T19:00:00Z,29.6350,-93.6417,2.0,22.8776,11111222 
TABS,ioos:station:wmo:42051:1,2014-09-02T19:30:00Z,29.6350,-93.6417,2.0,22.7447,11111222 
TABS,ioos:station:wmo:42051:1,2014-09-02T20:00:00Z,29.6350,-93.6417,2.0,22.4913,11111222 
TABS,ioos:station:wmo:42051:1,2014-09-02T20:30:00Z,29.6350,-93.6417,2.0,22.349,11111222 
TABS,ioos:station:wmo:42051:1,2014-09-02T21:00:00Z,29.6350,-93.6417,2.0,22.3289,11111222 
TABS,ioos:station:wmo:42051:1,2014-09-02T21:30:00Z,29.6350,-93.6417,2.0,22.2439,11111222 
TABS,ioos:station:wmo:42051:1,2014-09-02T22:00:00Z,29.6350,-93.6417,2.0,21.1141,11111222 
TABS,ioos:station:wmo:42051:1,2014-09-02T22:30:00Z,29.6350,-93.6417,2.0,21.5244,11111222 
TABS,ioos:station:wmo:42051:1,2014-09-02T23:00:00Z,29.6350,-93.6417,2.0,21.9195,11111222 
TABS,ioos:station:wmo:42051:1,2014-09-02T23:30:00Z,29.6350,-93.6417,2.0,21.2176,11111222 
TABS,ioos:station:wmo:42051:1,2014-09-03T00:00:00Z,29.6350,-93.6417,2.0,20.8833,11111222 
TABS,ioos:station:wmo:42051:1,2014-09-03T00:30:00Z,29.6350,-93.6417,2.0,21.0829,11111222 
TABS,ioos:station:wmo:42051:1,2014-09-03T01:00:00Z,29.6350,-93.6417,2.0,21.1754,11111222 
TABS,ioos:station:wmo:42051:1,2014-09-03T01:30:00Z,29.6350,-93.6417,2.0,21.5486,11111222 
TABS,ioos:station:wmo:42051:1,2014-09-03T02:00:00Z,29.6350,-93.6417,2.0,21.9664,11111222 
TABS,ioos:station:wmo:42051:1,2014-09-03T02:30:00Z,29.6350,-93.6417,2.0,21.3982,11111222 
TABS,ioos:station:wmo:42051:1,2014-09-03T03:00:00Z,29.6350,-93.6417,2.0,20.9635,11111222 
TABS,ioos:station:wmo:42051:1,2014-09-03T03:30:00Z,29.6350,-93.6417,2.0,20.499,11111222 
TABS,ioos:station:wmo:42051:1,2014-09-03T04:00:00Z,29.6350,-93.6417,2.0,20.0214,11111222 
TABS,ioos:station:wmo:42051:1,2014-09-03T04:30:00Z,29.6350,-93.6417,2.0,20.0876,11111222 
TABS,ioos:station:wmo:42051:1,2014-09-03T05:00:00Z,29.6350,-93.6417,2.0,20.1922,11111222 
TABS,ioos:station:wmo:42051:1,2014-09-03T05:30:00Z,29.6350,-93.6417,2.0,20.3998,11111222 
TABS,ioos:station:wmo:42051:1,2014-09-03T06:00:00Z,29.6350,-93.6417,2.0,20.6559,11111222 
TABS,ioos:station:wmo:42051:1,2014-09-03T06:30:00Z,29.6350,-93.6417,2.0,20.816,11111222 
TABS,ioos:station:wmo:42051:1,2014-09-03T07:00:00Z,29.6350,-93.6417,2.0,20.9905,11111222 
TABS,ioos:station:wmo:42051:1,2014-09-03T07:30:00Z,29.6350,-93.6417,2.0,21.3373,11111222 
TABS,ioos:station:wmo:42051:1,2014-09-03T08:00:00Z,29.6350,-93.6417,2.0,21.5289,11111222 
TABS,ioos:station:wmo:42051:1,2014-09-03T08:30:00Z,29.6350,-93.6417,2.0,21.5066,11111222 
TABS,ioos:station:wmo:42051:1,2014-09-03T09:00:00Z,29.6350,-93.6417,2.0,21.6099,11111222 
TABS,ioos:station:wmo:42051:1,2014-09-03T09:30:00Z,29.6350,-93.6417,2.0,21.3763,11111222 
TABS,ioos:station:wmo:42051:1,2014-09-03T10:00:00Z,29.6350,-93.6417,2.0,20.9771,11111222 
TABS,ioos:station:wmo:42051:1,2014-09-03T10:30:00Z,29.6350,-93.6417,2.0,20.5059,11111222 
TABS,ioos:station:wmo:42051:1,2014-09-03T11:00:00Z,29.6350,-93.6417,2.0,19.7654,11111222 
TABS,ioos:station:wmo:42051:1,2014-09-03T11:30:00Z,29.6350,-93.6417,2.0,19.5085,11111222 
TABS,ioos:station:wmo:42051:1,2014-09-03T12:00:00Z,29.6350,-93.6417,2.0,19.5229,11111222 
TABS,ioos:station:wmo:42051:1,2014-09-03T12:30:00Z,29.6350,-93.6417,2.0,19.3024,11111222 
TABS,ioos:station:wmo:42051:1,2014-09-03T13:00:00Z,29.6350,-93.6417,2.0,19.0531,11111222 
TABS,ioos:station:wmo:42051:1,2014-09-03T13:30:00Z,29.6350,-93.6417,2.0,19.0202,11111222 
TABS,ioos:station:wmo:42051:1,2014-09-03T14:00:00Z,29.6350,-93.6417,2.0,18.968,11111222 
TABS,ioos:station:wmo:42051:1,2014-09-03T14:30:00Z,29.6350,-93.6417,2.0,18.9987,11111222 
TABS,ioos:station:wmo:42051:1,2014-09-03T15:00:00Z,29.6350,-93.6417,2.0,19.1144,11111222 
TABS,ioos:station:wmo:42051:1,2014-09-03T15:30:00Z,29.6350,-93.6417,2.0,19.1445,11111222 
TABS,ioos:station:wmo:42051:1,2014-09-03T16:00:00Z,29.6350,-93.6417,2.0,19.1186,11111222 
TABS,ioos:station:wmo:42051:1,2014-09-03T16:30:00Z,29.6350,-93.6417,2.0,19.1732,11111222 
TABS,ioos:station:wmo:42051:1,2014-09-03T17:00:00Z,29.6350,-93.6417,2.0,19.2578,11111222 
TABS,ioos:station:wmo:42051:1,2014-09-03T17:30:00Z,29.6350,-93.6417,2.0,19.4948,11111222 
TABS,ioos:station:wmo:42051:1,2014-09-03T18:00:00Z,29.6350,-93.6417,2.0,19.8709,11111222 
TABS,ioos:station:wmo:42051:1,2014-09-03T18:30:00Z,29.6350,-93.6417,2.0,19.6684,11111222 
TABS,ioos:station:wmo:42051:1,2014-09-03T19:00:00Z,29.6350,-93.6417,2.0,20.0992,11111222 
TABS,ioos:station:wmo:42051:1,2014-09-03T19:30:00Z,29.6350,-93.6417,2.0,20.2528,11111222 
TABS,ioos:station:wmo:42051:1,2014-09-03T20:00:00Z,29.6350,-93.6417,2.0,21.2692,11111222 
TABS,ioos:station:wmo:42051:1,2014-09-03T20:30:00Z,29.6350,-93.6417,2.0,21.9972,11111222 
TABS,ioos:station:wmo:42051:1,2014-09-03T21:00:00Z,29.6350,-93.6417,2.0,22.8805,11111222 
TABS,ioos:station:wmo:42051:1,2014-09-03T21:30:00Z,29.6350,-93.6417,2.0,23.5666,11111222 
TABS,ioos:station:wmo:42051:1,2014-09-03T22:00:00Z,29.6350,-93.6417,2.0,24.1085,11111222 
TABS,ioos:station:wmo:42051:1,2014-09-03T22:30:00Z,29.6350,-93.6417,2.0,24.6245,11111222 
TABS,ioos:station:wmo:42051:1,2014-09-03T23:00:00Z,29.6350,-93.6417,2.0,24.9447,11111222 
TABS,ioos:station:wmo:42051:1,2014-09-03T23:30:00Z,29.6350,-93.6417,2.0,25.1758,11111222 
TABS,ioos:station:wmo:42051:1,2014-09-04T00:00:00Z,29.6350,-93.6417,2.0,25.4113,11111222 
TABS,ioos:station:wmo:42051:1,2014-09-04T00:30:00Z,29.6350,-93.6417,2.0,25.5812,11111222 
TABS,ioos:station:wmo:42051:1,2014-09-04T01:00:00Z,29.6350,-93.6417,2.0,25.5296,11111222 
TABS,ioos:station:wmo:42051:1,2014-09-04T01:30:00Z,29.6350,-93.6417,2.0,25.6787,11111222 
TABS,ioos:station:wmo:42051:1,2014-09-04T02:00:00Z,29.6350,-93.6417,2.0,25.7279,11111222 
TABS,ioos:station:wmo:42051:1,2014-09-04T02:30:00Z,29.6350,-93.6417,2.0,25.7336,11111222 
TABS,ioos:station:wmo:42051:1,2014-09-04T03:00:00Z,29.6350,-93.6417,2.0,25.6936,11111222 
TABS,ioos:station:wmo:42051:1,2014-09-04T03:30:00Z,29.6350,-93.6417,2.0,25.6894,11111222 
TABS,ioos:station:wmo:42051:1,2014-09-04T04:00:00Z,29.6350,-93.6417,2.0,25.6993,11111222 
TABS,ioos:station:wmo:42051:1,2014-09-04T04:30:00Z,29.6350,-93.6417,2.0,25.6446,11111222 
TABS,ioos:station:wmo:42051:1,2014-09-04T05:00:00Z,29.6350,-93.6417,2.0,25.6035,11111222 
TABS,ioos:station:wmo:42051:1,2014-09-04T05:30:00Z,29.6350,-93.6417,2.0,25.5542,11111222 
TABS,ioos:station:wmo:42051:1,2014-09-04T06:00:00Z,29.6350,-93.6417,2.0,25.5138,11111222 
TABS,ioos:station:wmo:42051:1,2014-09-04T06:30:00Z,29.6350,-93.6417,2.0,25.4459,11111222 
TABS,ioos:station:wmo:42051:1,2014-09-04T07:00:00Z,29.6350,-93.6417,2.0,25.458,11111222 
TABS,ioos:station:wmo:42051:1,2014-09-04T07:30:00Z,29.6350,-93.6417,2.0,26.2381,11111222 
TABS,ioos:station:wmo:42051:1,2014-09-04T08:00:00Z,29.6350,-93.6417,2.0,27.6381,11111222 
TABS,ioos:station:wmo:42051:1,2014-09-04T08:30:00Z,29.6350,-93.6417,2.0,26.5216,11111222 
TABS,ioos:station:wmo:42051:1,2014-09-04T09:00:00Z,29.6350,-93.6417,2.0,24.2021,11111222 
TABS,ioos:station:wmo:42051:1,2014-09-04T09:30:00Z,29.6350,-93.6417,2.0,23.3968,11111222 
TABS,ioos:station:wmo:42051:1,2014-09-04T10:00:00Z,29.6350,-93.6417,2.0,22.2789,11111222 
TABS,ioos:station:wmo:42051:1,2014-09-04T10:30:00Z,29.6350,-93.6417,2.0,22.0824,11111222 
TABS,ioos:station:wmo:42051:1,2014-09-04T11:00:00Z,29.6350,-93.6417,2.0,22.24,11111222 
TABS,ioos:station:wmo:42051:1,2014-09-04T11:30:00Z,29.6350,-93.6417,2.0,22.2022,11111222 
TABS,ioos:station:wmo:42051:1,2014-09-04T12:00:00Z,29.6350,-93.6417,2.0,22.0713,11111222 
TABS,ioos:station:wmo:42051:1,2014-09-04T12:30:00Z,29.6350,-93.6417,2.0,22.3275,11111222 
TABS,ioos:station:wmo:42051:1,2014-09-04T13:00:00Z,29.6350,-93.6417,2.0,22.4596,11111222 
TABS,ioos:station:wmo:42051:1,2014-09-04T13:30:00Z,29.6350,-93.6417,2.0,22.7474,11111222 
TABS,ioos:station:wmo:42051:1,2014-09-04T14:00:00Z,29.6350,-93.6417,2.0,22.9147,11111222 
TABS,ioos:station:wmo:42051:1,2014-09-04T14:30:00Z,29.6350,-93.6417,2.0,23.2666,11111222 
TABS,ioos:station:wmo:42051:1,2014-09-04T15:00:00Z,29.6350,-93.6417,2.0,23.4166,11111222 
TABS,ioos:station:wmo:42051:1,2014-09-04T15:30:00Z,29.6350,-93.6417,2.0,23.5392,11111222 
TABS,ioos:station:wmo:42051:1,2014-09-04T16:00:00Z,29.6350,-93.6417,2.0,23.7087,11111222 
TABS,ioos:station:wmo:42051:1,2014-09-04T16:30:00Z,29.6350,-93.6417,2.0,23.8654,11111222 
TABS,ioos:station:wmo:42051:1,2014-09-04T17:00:00Z,29.6350,-93.6417,2.0,23.9221,11111222 
TABS,ioos:station:wmo:42051:1,2014-09-04T17:30:00Z,29.6350,-93.6417,2.0,23.9991,11111222 
TABS,ioos:station:wmo:42051:1,2014-09-04T18:00:00Z,29.6350,-93.6417,2.0,24.0595,11111222 
TABS,ioos:station:wmo:42051:1,2014-09-04T18:30:00Z,29.6350,-93.6417,2.0,24.1288,11111222 
TABS,ioos:station:wmo:42051:1,2014-09-04T19:00:00Z,29.6350,-93.6417,2.0,24.1991,11111222 
TABS,ioos:station:wmo:42051:1,2014-09-04T19:30:00Z,29.6350,-93.6417,2.0,24.2724,11111222 
TABS,ioos:station:wmo:42051:1,2014-09-04T20:00:00Z,29.6350,-93.6417,2.0,24.3547,11111222 
TABS,ioos:station:wmo:42051:1,2014-09-04T20:30:00Z,29.6350,-93.6417,2.0,24.4244,11111222 
TABS,ioos:station:wmo:42051:1,2014-09-04T21:00:00Z,29.6350,-93.6417,2.0,24.4554,11111222 
TABS,ioos:station:wmo:42051:1,2014-09-04T21:30:00Z,29.6350,-93.6417,2.0,24.4848,11111222 
TABS,ioos:station:wmo:42051:1,2014-09-04T22:00:00Z,29.6350,-93.6417,2.0,24.5428,11111222 
TABS,ioos:station:wmo:42051:1,2014-09-04T22:30:00Z,29.6350,-93.6417,2.0,24.5505,11111222 
TABS,ioos:station:wmo:42051:1,2014-09-04T23:00:00Z,29.6350,-93.6417,2.0,24.5994,11111222 
TABS,ioos:station:wmo:42051:1,2014-09-04T23:30:00Z,29.6350,-93.6417,2.0,24.6406,11111222 
TABS,ioos:station:wmo:42051:1,2014-09-05T00:00:00Z,29.6350,-93.6417,2.0,24.6548,11111222 
TABS,ioos:station:wmo:42051:1,2014-09-05T00:30:00Z,29.6350,-93.6417,2.0,24.6058,11111222 
TABS,ioos:station:wmo:42051:1,2014-09-05T01:00:00Z,29.6350,-93.6417,2.0,24.3086,11111222 
TABS,ioos:station:wmo:42051:1,2014-09-05T01:30:00Z,29.6350,-93.6417,2.0,24.2609,11111222 
TABS,ioos:station:wmo:42051:1,2014-09-05T02:00:00Z,29.6350,-93.6417,2.0,24.179,11111222 
TABS,ioos:station:wmo:42051:1,2014-09-05T02:30:00Z,29.6350,-93.6417,2.0,24.5261,11111222 
TABS,ioos:station:wmo:42051:1,2014-09-05T03:00:00Z,29.6350,-93.6417,2.0,24.5084,11111222 
TABS,ioos:station:wmo:42051:1,2014-09-05T03:30:00Z,29.6350,-93.6417,2.0,24.4395,11111222 
TABS,ioos:station:wmo:42051:1,2014-09-05T04:00:00Z,29.6350,-93.6417,2.0,24.5051,11111222 
TABS,ioos:station:wmo:42051:1,2014-09-05T04:30:00Z,29.6350,-93.6417,2.0,24.5716,11111222 
TABS,ioos:station:wmo:42051:1,2014-09-05T05:00:00Z,29.6350,-93.6417,2.0,24.6087,11111222 
TABS,ioos:station:wmo:42051:1,2014-09-05T05:30:00Z,29.6350,-93.6417,2.0,24.8012,11111222 
TABS,ioos:station:wmo:42051:1,2014-09-05T06:00:00Z,29.6350,-93.6417,2.0,25.0214,11111222 
TABS,ioos:station:wmo:42051:1,2014-09-05T06:30:00Z,29.6350,-93.6417,2.0,25.1507,11111222 
TABS,ioos:station:wmo:42051:1,2014-09-05T07:00:00Z,29.6350,-93.6417,2.0,25.1707,11111222 
TABS,ioos:station:wmo:42051:1,2014-09-05T07:30:00Z,29.6350,-93.6417,2.0,25.1379,11111222 
TABS,ioos:station:wmo:42051:1,2014-09-05T08:00:00Z,29.6350,-93.6417,2.0,25.2599,11111222 
TABS,ioos:station:wmo:42051:1,2014-09-05T08:30:00Z,29.6350,-93.6417,2.0,25.3871,11111222 
TABS,ioos:station:wmo:42051:1,2014-09-05T09:00:00Z,29.6350,-93.6417,2.0,25.5038,11111222 
TABS,ioos:station:wmo:42051:1,2014-09-05T09:30:00Z,29.6350,-93.6417,2.0,25.5884,11111222 
TABS,ioos:station:wmo:42051:1,2014-09-05T10:00:00Z,29.6350,-93.6417,2.0,25.5968,11111222 
TABS,ioos:station:wmo:42051:1,2014-09-05T10:30:00Z,29.6350,-93.6417,2.0,25.6123,11111222 
TABS,ioos:station:wmo:42051:1,2014-09-05T11:00:00Z,29.6350,-93.6417,2.0,25.5381,11111222 
TABS,ioos:station:wmo:42051:1,2014-09-05T11:30:00Z,29.6350,-93.6417,2.0,25.4024,11111222 
TABS,ioos:station:wmo:42051:1,2014-09-05T12:00:00Z,29.6350,-93.6417,2.0,25.3378,11111222 
TABS,ioos:station:wmo:42051:1,2014-09-05T12:30:00Z,29.6350,-93.6417,2.0,25.4095,11111222 
TABS,ioos:station:wmo:42051:1,2014-09-05T13:00:00Z,29.6350,-93.6417,2.0,24.3947,11111222 
TABS,ioos:station:wmo:42051:1,2014-09-05T13:30:00Z,29.6350,-93.6417,2.0,22.7953,11111222 
TABS,ioos:station:wmo:42051:1,2014-09-05T14:00:00Z,29.6350,-93.6417,2.0,21.9315,11111222 
TABS,ioos:station:wmo:42051:1,2014-09-05T14:30:00Z,29.6350,-93.6417,2.0,22.1415,11111222 
TABS,ioos:station:wmo:42051:1,2014-09-05T15:00:00Z,29.6350,-93.6417,2.0,21.3083,11111222 
TABS,ioos:station:wmo:42051:1,2014-09-05T15:30:00Z,29.6350,-93.6417,2.0,21.7943,11111222 
TABS,ioos:station:wmo:42051:1,2014-09-05T16:00:00Z,29.6350,-93.6417,2.0,21.4268,11111222 
TABS,ioos:station:wmo:42051:1,2014-09-05T16:30:00Z,29.6350,-93.6417,2.0,20.8659,11111222 
TABS,ioos:station:wmo:42051:1,2014-09-05T17:00:00Z,29.6350,-93.6417,2.0,20.9057,11111222 
TABS,ioos:station:wmo:42051:1,2014-09-05T17:30:00Z,29.6350,-93.6417,2.0,20.8123,11111222 
TABS,ioos:station:wmo:42051:1,2014-09-05T18:00:00Z,29.6350,-93.6417,2.0,20.4454,11111222 
TABS,ioos:station:wmo:42051:1,2014-09-05T18:30:00Z,29.6350,-93.6417,2.0,20.7207,11111222 
TABS,ioos:station:wmo:42051:1,2014-09-05T19:00:00Z,29.6350,-93.6417,2.0,20.6774,11111222 
TABS,ioos:station:wmo:42051:1,2014-09-05T19:30:00Z,29.6350,-93.6417,2.0,20.8994,11111222 
TABS,ioos:station:wmo:42051:1,2014-09-05T20:00:00Z,29.6350,-93.6417,2.0,20.8037,11111222 
TABS,ioos:station:wmo:42051:1,2014-09-05T20:30:00Z,29.6350,-93.6417,2.0,21.2609,11111222 
TABS,ioos:station:wmo:42051:1,2014-09-05T21:00:00Z,29.6350,-93.6417,2.0,21.0625,11111222 
TABS,ioos:station:wmo:42051:1,2014-09-05T21:30:00Z,29.6350,-93.6417,2.0,21.1529,11111222 
TABS,ioos:station:wmo:42051:1,2014-09-05T22:00:00Z,29.6350,-93.6417,2.0,21.0256,11111222 
TABS,ioos:station:wmo:42051:1,2014-09-05T22:30:00Z,29.6350,-93.6417,2.0,21.0491,11111222 
TABS,ioos:station:wmo:42051:1,2014-09-05T23:00:00Z,29.6350,-93.6417,2.0,21.2322,11111222 
TABS,ioos:station:wmo:42051:1,2014-09-05T23:30:00Z,29.6350,-93.6417,2.0,21.3984,11111222 
TABS,ioos:station:wmo:42051:1,2014-09-06T00:00:00Z,29.6350,-93.6417,2.0,21.5287,11111222 
TABS,ioos:station:wmo:42051:1,2014-09-06T00:30:00Z,29.6350,-93.6417,2.0,21.5539,11111222 
TABS,ioos:station:wmo:42051:1,2014-09-06T01:00:00Z,29.6350,-93.6417,2.0,21.7243,11111222 
TABS,ioos:station:wmo:42051:1,2014-09-06T01:30:00Z,29.6350,-93.6417,2.0,21.6814,11111222 
TABS,ioos:station:wmo:42051:1,2014-09-06T02:00:00Z,29.6350,-93.6417,2.0,21.5413,11111222 
TABS,ioos:station:wmo:42051:1,2014-09-06T02:30:00Z,29.6350,-93.6417,2.0,21.5512,11111222 
TABS,ioos:station:wmo:42051:1,2014-09-06T03:00:00Z,29.6350,-93.6417,2.0,21.4526,11111222 
TABS,ioos:station:wmo:42051:1,2014-09-06T03:30:00Z,29.6350,-93.6417,2.0,21.0771,11111222 
TABS,ioos:station:wmo:42051:1,2014-09-06T04:00:00Z,29.6350,-93.6417,2.0,20.8114,11111222 
TABS,ioos:station:wmo:42051:1,2014-09-06T04:30:00Z,29.6350,-93.6417,2.0,20.7159,11111222 
TABS,ioos:station:wmo:42051:1,2014-09-06T05:00:00Z,29.6350,-93.6417,2.0,20.759,11111222 
TABS,ioos:station:wmo:42051:1,2014-09-06T05:30:00Z,29.6350,-93.6417,2.0,20.7975,11111222 
TABS,ioos:station:wmo:42051:1,2014-09-06T06:00:00Z,29.6350,-93.6417,2.0,20.6741,11111222 
TABS,ioos:station:wmo:42051:1,2014-09-06T06:30:00Z,29.6350,-93.6417,2.0,20.1939,11111222 
TABS,ioos:station:wmo:42051:1,2014-09-06T07:00:00Z,29.6350,-93.6417,2.0,20.1688,11111222 
TABS,ioos:station:wmo:42051:1,2014-09-06T07:30:00Z,29.6350,-93.6417,2.0,19.8526,11111222 
TABS,ioos:station:wmo:42051:1,2014-09-06T08:00:00Z,29.6350,-93.6417,2.0,19.356,11111222 
TABS,ioos:station:wmo:42051:1,2014-09-06T08:30:00Z,29.6350,-93.6417,2.0,18.5422,11111222 
TABS,ioos:station:wmo:42051:1,2014-09-06T09:00:00Z,29.6350,-93.6417,2.0,17.9705,11111222 
TABS,ioos:station:wmo:42051:1,2014-09-06T09:30:00Z,29.6350,-93.6417,2.0,17.2087,11111222 
TABS,ioos:station:wmo:42051:1,2014-09-06T10:00:00Z,29.6350,-93.6417,2.0,17.2525,11111222 
TABS,ioos:station:wmo:42051:1,2014-09-06T10:30:00Z,29.6350,-93.6417,2.0,17.0402,11111222 
TABS,ioos:station:wmo:42051:1,2014-09-06T11:00:00Z,29.6350,-93.6417,2.0,16.8748,11111222 
TABS,ioos:station:wmo:42051:1,2014-09-06T11:30:00Z,29.6350,-93.6417,2.0,16.8062,11111222 
TABS,ioos:station:wmo:42051:1,2014-09-06T12:00:00Z,29.6350,-93.6417,2.0,16.8647,11111222 